Location: Canyam�s
(41.5996°N, 2.4450°E)
Time: 00:59:17
(UTC+00:00)

Cosmos 1606 Rocket - Pass Details

Date: 06 June 2020
Orbit: 604 x 631 km, 82.5° (Epoch: 15 July)

Event Time Altitude Azimuth Distance (km) Brightness Sun altitude
Rises 23:02:07 0° 349° (N) 2,874 8.4 -24.7°
Reaches altitude 10° 23:04:21 10° 347° (NNW) 1,968 7.2 -24.8°
Enters shadow 23:08:26 68° 289° (WNW) 662 3.7 -24.9°
